PulseSat

PulseSat

COSMOS 2464 (736)

Last updated on Jan. 18, 2019, 3 a.m. UTC

1 37139U 10041C   19017.32511185  .00000010  00000-0  00000+0 0  9993
2 37139  64.3933 283.8681 0025795  11.2631 127.4559  2.13097289 65185
UTC
Height (km)
Latitude
Longitude
Inclination
Orbital Period

Next 30 passes for location: Hong Kong

Rise time Rise Azimuth (degrees) Set time Set Azimuth (degrees) Duration Max altitude (degrees)

No matching passes for this satellites

PulseSat

PulseSat is the new satellites software and hardware trackering solution by Pulsely.
Satellite Two Line Element Set source: US Air Force Space Command

Download PulseSat for iOS
© 2017 Pulsely Limited